GFSNIL_850_spd_276.txt.gz
Wind_Speed
12 11 8 5 3 1 5 4 7 13 15 15 13 11 11 14 17 20 18 18 17 15
12 9 5 4 6 10 10 10 10 12 16 17 15 12 10 15 20 19 17 16 16 15
12 7 9 9 8 9 10 9 13 13 15 15 14 15 12 18 22 20 16 13 12 14
12 13 10 5 6 5 7 10 15 14 13 14 17 15 12 20 23 21 19 15 12 10
16 12 8 6 4 1 6 11 12 13 12 14 15 16 14 20 21 22 22 18 13 11
14 12 9 8 5 3 7 11 11 11 11 13 13 14 13 19 21 23 24 18 14 13
16 11 9 5 3 7 9 9 9 9 11 12 13 11 12 17 20 24 21 15 12 11
16 10 4 4 6 10 8 9 10 12 14 14 13 13 15 18 19 17 17 15 15 16
16 10 5 3 8 8 9 10 12 14 15 15 14 12 12 11 10 11 13 17 18 19
16 10 6 3 4 7 11 12 12 11 10 9 9 10 10 10 12 16 19 20 20 19
9 5 4 3 5 8 12 10 2 4 8 10 11 12 15 18 19 19 19 20 19 19
8 4 6 6 6 11 8 2 2 3 5 10 16 20 22 22 22 21 19 19 20 21
6 4 5 6 10 5 2 4 1 5 10 15 18 20 21 22 23 23 25 24 22 21
4 5 7 6 1 2 3 3 4 6 10 13 17 21 24 27 29 31 31 30 30 30

GFSNIL_850_spd_279.txt.gz
Wind_Speed
12 12 10 6 3 1 3 4 7 10 12 12 12 9 9 12 15 14 12 13 13 13
16 13 10 7 6 5 6 7 8 8 11 12 11 8 9 13 16 15 14 12 11 12
14 12 8 11 6 4 4 5 9 8 7 9 11 8 9 13 16 16 16 14 12 11
15 10 13 9 6 1 3 7 9 9 7 9 9 9 10 14 15 16 18 16 12 11
14 16 13 10 6 2 4 9 9 9 8 9 11 11 10 12 17 18 21 19 13 12
19 17 13 11 7 4 7 10 9 10 10 11 11 11 11 14 16 19 21 16 13 12
19 15 11 11 7 7 9 10 10 11 11 12 12 11 12 15 18 17 14 13 13 15
19 15 12 8 7 8 7 10 11 12 12 13 15 14 12 11 12 13 14 16 18 19
18 15 10 9 8 8 8 10 12 13 10 10 9 9 12 13 13 15 18 20 19 18
13 14 12 11 9 7 9 11 11 9 7 9 9 9 12 15 14 13 13 13 15 14
19 19 14 12 10 9 9 7 5 4 6 9 11 12 12 12 13 13 13 15 16 18
19 19 13 10 9 7 5 4 2 3 7 10 11 13 15 16 17 19 20 20 22 23
15 12 11 10 8 5 4 4 1 3 7 12 16 19 22 24 25 27 29 31 33 34
14 12 9 7 4 3 3 1 1 5 13 15 16 18 21 23 26 29 30 32 34 36

GFSNIL_850_spd_285.txt.gz
Wind_Speed
14 11 8 7 7 5 6 4 1 4 5 7 7 5 6 9 12 11 12 11 10 10
15 13 10 11 8 8 7 3 2 3 5 6 6 6 9 11 13 13 14 14 13 11
16 14 12 11 11 10 7 2 3 4 6 7 8 10 12 13 14 15 16 17 15 11
17 16 16 14 14 10 6 2 3 6 7 8 9 11 13 14 15 16 17 16 12 11
16 18 17 18 15 9 7 4 5 6 7 9 11 12 12 13 16 17 15 12 12 12
19 19 19 18 14 10 7 6 8 7 8 10 11 11 12 14 13 11 13 14 16 17
18 18 21 18 14 10 9 9 8 7 9 11 12 11 9 9 10 11 14 15 16 17
14 17 19 16 14 10 10 9 7 8 10 11 9 8 8 9 11 11 11 11 11 13
21 19 19 19 15 11 10 8 7 8 8 7 7 8 8 8 8 9 10 12 14 16
27 22 23 18 14 11 8 6 6 6 5 6 7 7 8 10 12 14 16 16 16 17
25 22 21 18 13 11 8 5 3 3 3 3 6 10 13 14 13 14 15 16 17 18
26 24 18 15 13 9 7 5 3 0 3 8 11 11 11 11 12 13 15 17 20 21
25 21 18 14 11 9 8 5 3 5 10 10 10 9 8 9 11 12 13 14 16 19
23 20 13 12 9 8 8 7 6 9 10 9 7 6 7 9 10 11 12 15 17 20

GFSNIL_850_spd_291.txt.gz
Wind_Speed
14 10 8 9 7 5 5 6 3 3 3 5 4 5 9 4 10 10 12 12 12 10
14 12 9 11 10 8 9 5 5 4 3 5 5 6 8 7 6 10 9 10 13 10
15 15 13 11 11 11 10 8 4 4 2 2 7 7 6 6 12 11 9 8 10 10
16 15 15 12 12 11 9 6 4 1 1 3 4 6 6 6 10 8 7 7 8 9
17 17 16 14 14 13 9 5 3 1 2 2 4 8 7 5 5 5 5 8 8 10
21 19 17 16 15 13 11 7 3 2 3 6 10 7 6 6 6 6 8 8 7 9
23 23 21 22 19 15 12 9 5 4 5 8 9 6 4 5 6 5 6 7 7 12
23 24 26 28 26 19 14 8 6 4 5 6 4 6 5 5 5 5 7 8 8 12
23 27 26 20 19 23 14 8 6 5 5 6 7 4 2 3 4 5 6 7 8 12
28 28 23 20 18 13 10 8 8 5 7 7 4 0 4 6 5 5 7 7 8 7
20 23 25 23 19 13 9 7 6 5 5 3 5 7 5 5 5 5 6 6 7 8
24 24 21 22 17 12 9 8 8 7 5 6 8 6 4 7 3 3 4 7 8 11
24 23 23 20 16 13 11 9 8 7 8 8 8 6 4 8 2 2 3 8 12 13
21 22 19 18 16 13 11 11 9 9 9 10 8 6 5 5 5 1 3 5 8 11